User: anonymous   Login
Location: Bothwell
(42.3833°S, 147.0000°E)
Time: 02:04:11
(UTC+10:00)
Language:

First-Move - Orbit

View from above orbital plane
View from above orbital plane
View from above satellite
View from above satellite

Ground track
Ground track

The orbit data is extracted from the following two-line orbital elements,

1 39439U 13066Z   24110.13617617  .00028588  00000-0  23780-2 0  9997
2 39439  97.7189  74.2288 0047639 337.3863  22.5259 14.97749051563123
Epoch (UTC): 19 April 2024 03:16:05
Eccentricity: 0.0047639
inclination: 97.7189°
perigee height: 541 km
apogee height: 607 km
right ascension of ascending node: 74.2288°
argument of perigee: 337.3863°
revolutions per day: 14.97749051
mean anomaly at epoch: 22.5259°
orbit number at epoch: 56312

The dashed part of the orbit path shows where the satellite is in the earth's shadow,  

DLR